Theta_e
309 310 310 310 310 311 311 312 312 313 313 313 314 314 314 314 313 313 315 315 314 312 313 315 314 316 319 321 321 320 322 324 323 321 321 318 318 316 315 318 316 316 316 313 312
309 309 309 308 308 308 308 309 309 310 311 312 314 314 313 314 317 316 314 312 312 313 314 316 318 317 321 321 321 322 324 323 321 320 320 319 318 318 315 316 317 316 314 308 309
311 311 310 310 310 309 309 308 308 308 309 310 312 314 313 313 318 319 315 311 312 312 313 314 316 319 321 321 321 321 322 321 319 318 317 318 318 317 317 318 319 318 317 310 309
311 311 311 311 311 311 310 309 309 308 307 308 310 313 314 317 319 315 311 311 311 313 313 315 317 319 321 323 321 321 321 319 319 317 317 317 318 317 317 319 318 318 318 314 311
311 312 311 312 312 312 311 310 309 308 308 307 309 313 315 318 318 314 312 311 311 312 314 316 319 321 321 321 319 319 320 318 317 316 317 316 316 317 318 318 317 315 313 314 311
312 311 311 311 311 311 311 311 310 309 308 307 308 313 317 316 314 313 312 311 312 313 314 315 318 318 318 319 320 319 318 318 318 318 317 316 317 316 318 318 318 317 313 313 312
313 313 311 311 311 311 311 311 310 309 308 308 310 313 316 315 313 313 311 311 310 312 314 314 316 318 319 320 317 317 318 318 319 317 317 316 317 318 317 315 316 316 315 313 313
312 311 312 311 311 311 311 310 309 308 308 310 312 316 315 314 314 311 310 310 310 311 313 312 313 317 317 316 317 318 318 319 320 318 316 316 318 318 319 318 316 316 316 314 313
311 311 311 311 311 310 310 309 308 308 311 313 316 318 315 313 314 313 311 312 311 311 312 311 315 318 316 318 320 320 320 320 320 317 317 317 318 317 317 316 316 316 317 316 314
311 311 310 310 309 309 309 308 307 311 314 313 314 317 315 315 314 312 309 311 313 314 314 315 317 318 319 319 319 319 318 319 319 319 316 317 317 317 317 316 316 315 315 316 317
312 311 310 309 308 307 308 309 314 314 314 316 317 317 313 314 312 312 310 311 313 315 316 317 318 319 318 319 319 319 319 318 318 317 317 317 317 317 317 316 317 316 316 316 316
313 312 311 310 309 310 308 311 314 310 310 312 313 312 312 315 317 315 310 313 313 315 316 317 317 318 317 318 318 318 318 318 318 318 314 316 316 316 316 316 316 316 316 315 315
313 312 311 310 310 310 310 311 308 310 314 312 313 312 312 313 314 316 311 313 314 316 316 317 316 315 316 317 317 317 317 318 318 318 314 314 316 316 316 315 314 314 315 314 314
314 312 311 310 311 313 311 308 309 309 310 311 310 312 313 313 312 311 311 313 314 315 315 316 316 315 315 316 316 317 317 318 318 318 319 314 318 318 316 316 314 314 313 314 313
316 313 312 310 310 314 308 308 309 307 314 310 310 310 313 312 311 310 307 310 314 314 315 315 316 315 316 316 316 316 312 315 316 317 318 317 318 317 313 314 313 312 313 315 315
317 315 312 312 311 311 308 306 309 309 312 310 312 313 315 313 312 309 310 309 311 313 314 314 310 313 315 310 312 311 312 312 312 315 319 317 318 317 316 313 314 314 314 315 313
319 316 312 312 313 310 308 310 309 309 309 313 313 313 314 316 314 311 311 311 314 315 315 316 315 312 310 313 310 311 315 319 324 324 322 318 317 317 316 313 313 313 314 313 311
321 317 314 312 312 310 308 310 309 310 313 311 312 314 316 315 315 313 313 314 313 314 315 318 318 316 311 315 318 313 316 322 326 322 321 317 318 316 315 314 313 313 313 311 310
322 317 313 312 311 310 309 311 313 313 311 312 313 312 313 314 314 316 315 315 315 314 316 316 316 309 311 310 315 314 314 316 322 321 322 316 316 317 314 313 312 311 310 310 309
317 315 314 313 313 308 310 312 317 313 311 309 311 312 312 312 313 314 315 315 315 315 314 315 316 313 304 306 307 311 311 316 317 323 320 316 318 319 317 313 312 311 310 311 311
317 316 314 312 309 310 310 310 316 314 310 307 309 311 312 312 313 313 312 314 315 315 313 314 316 313 306 309 313 308 311 310 311 318 320 320 318 312 313 313 313 312 310 311 313
316 317 311 311 312 310 309 311 312 313 308 307 307 308 310 310 310 311 313 313 313 313 312 313 316 316 315 312 308 311 313 313 315 316 314 315 317 312 313 312 312 312 311 311 311
316 315 308 311 317 310 311 312 312 315 313 308 308 307 308 307 309 310 311 311 310 312 313 312 315 317 315 311 305 309 311 310 313 313 315 318 317 312 312 312 311 310 310 310 309
316 315 307 307 313 317 313 315 315 314 314 313 309 309 310 310 310 310 312 311 311 310 310 311 315 316 314 314 312 312 311 311 312 314 314 314 314 313 313 313 313 313 313 312 310
312 316 308 309 309 313 314 314 316 316 314 312 313 310 311 314 313 311 311 311 310 308 309 311 313 313 313 313 313 311 314 314 311 311 313 313 313 313 313 313 313 312 311 310 310
307 314 308 311 313 311 312 314 315 316 316 316 315 314 311 313 314 318 316 313 314 308 309 310 313 313 314 313 313 312 312 313 313 313 313 311 311 311 311 311 311 311 311 311 310
300 300 299 305 310 312 312 313 314 315 315 316 316 314 315 312 311 313 314 315 314 312 310 310 312 313 315 314 314 315 314 314 313 313 312 313 313 313 313 313 312 312 312 311 311
Wind_Speed
9 11 12 13 13 14 14 15 15 15 15 14 9 6 7 5 5 6 8 6 6 5 2 2 4 5 5 3 3 2 5 7 5 4 2 4 10 4 4 7 5 8 7 5 16
9 11 11 12 14 15 15 15 15 14 15 15 12 8 7 8 9 15 10 10 8 5 4 7 4 7 5 3 3 5 5 5 1 3 4 5 10 8 6 11 15 13 11 6 22
9 10 11 12 13 15 15 16 16 15 15 14 14 9 6 5 7 4 15 12 9 7 5 4 4 7 8 4 6 3 5 2 5 6 5 7 8 8 9 16 13 16 16 15 22
10 11 12 12 13 14 15 16 16 17 16 15 13 9 4 2 6 1 11 9 7 6 6 5 5 4 6 8 5 5 10 7 1 3 4 8 5 8 17 19 2 8 11 19 20
12 13 14 14 15 16 17 17 18 18 17 16 13 7 2 7 8 4 10 7 5 5 7 8 9 7 8 5 4 10 10 6 8 6 9 6 12 12 17 18 17 8 6 15 18
14 15 14 14 15 15 17 18 19 20 20 18 11 6 6 11 4 6 10 8 7 8 5 6 5 4 8 6 7 5 9 12 8 11 9 9 13 3 12 13 19 17 15 16 19
15 16 16 16 16 18 18 19 21 22 22 18 9 7 8 14 5 7 9 7 8 5 6 3 2 5 1 6 3 5 9 13 15 12 7 7 10 18 20 7 11 14 16 17 19
16 17 18 18 17 19 19 20 21 23 21 12 5 6 7 7 5 7 7 4 5 4 3 4 3 2 4 1 4 6 5 10 2 10 5 8 17 13 9 10 14 17 16 17 20
19 19 18 19 19 20 20 20 22 18 10 2 4 7 6 3 4 8 8 5 7 5 3 3 3 4 4 6 12 10 12 15 13 14 4 13 15 4 2 8 15 17 18 18 19
21 19 21 21 18 18 20 19 15 5 1 2 3 5 6 3 5 6 5 9 3 7 4 6 6 8 9 11 14 16 15 17 19 10 13 14 21 22 18 17 20 22 22 20 20
20 21 23 26 20 15 18 6 5 5 6 7 1 5 1 2 5 6 6 9 5 7 11 9 9 17 18 20 22 22 21 22 26 9 11 19 22 23 22 20 22 22 21 21 20
17 20 22 26 28 13 7 4 1 1 9 13 15 9 7 3 4 9 11 11 9 15 15 6 17 22 18 12 15 19 21 26 23 9 7 17 22 21 21 24 24 23 22 18 16
16 17 17 21 30 10 5 2 2 1 7 8 8 7 6 13 10 11 16 8 11 16 19 23 19 2 8 16 15 19 21 23 21 13 13 13 16 15 14 17 18 20 20 17 16
18 14 16 17 6 14 7 4 3 2 7 9 8 4 5 4 7 4 15 7 9 13 19 19 20 21 18 20 18 21 17 19 20 11 12 3 13 14 15 17 13 18 19 14 11
19 14 14 9 6 4 8 9 5 3 10 4 5 4 4 7 4 4 3 5 18 11 6 12 10 8 15 24 12 13 2 6 10 14 17 15 14 16 7 10 12 18 18 15 6
21 16 12 8 4 6 3 5 8 8 12 7 8 9 6 8 3 3 5 4 2 11 13 19 1 5 7 3 4 5 3 4 5 7 11 18 18 8 7 6 9 12 15 6 6
25 21 19 9 3 5 5 3 6 12 3 8 8 8 11 11 9 11 8 12 10 7 13 14 23 6 4 6 4 9 7 6 8 7 17 13 13 16 10 11 14 20 19 6 9
30 28 29 19 11 6 4 5 16 9 24 2 1 6 10 12 9 11 8 10 19 16 6 8 10 21 14 20 7 15 13 6 13 15 25 2 14 10 14 16 15 16 7 5 9
32 28 21 24 19 16 6 11 20 18 18 12 7 10 14 10 7 12 15 13 11 21 13 9 11 3 9 2 7 8 9 3 8 3 9 15 22 16 7 12 14 7 5 10 11
19 11 25 27 30 15 5 25 22 17 15 8 25 15 23 22 12 12 14 10 14 18 20 7 13 6 5 3 4 6 2 5 4 7 18 29 22 16 15 17 11 6 10 12 9
20 3 7 30 27 4 7 14 16 22 25 11 21 24 22 23 22 23 18 18 12 9 18 10 9 7 7 11 15 7 7 6 4 8 11 20 10 9 11 8 7 8 8 9 6
5 4 23 39 7 3 9 11 8 18 4 6 12 22 25 24 25 25 26 23 11 5 10 11 4 12 23 9 6 13 20 21 12 17 8 15 28 3 6 2 7 6 6 5 7
3 2 19 20 9 8 7 20 13 14 16 7 12 12 14 17 14 20 21 17 8 9 7 7 5 6 10 8 4 8 13 12 18 14 25 18 25 11 19 12 7 9 9 9 11
4 4 2 4 6 16 18 21 23 18 21 18 10 10 14 18 20 13 22 14 14 6 8 6 4 10 19 24 5 10 20 20 21 16 27 27 31 39 31 25 26 22 22 16 15
3 7 8 6 10 15 10 9 23 17 17 14 9 23 18 11 16 16 26 32 23 2 4 3 17 21 28 33 32 26 15 13 24 27 24 31 24 25 30 27 24 23 28 22 26
4 4 2 9 20 25 25 21 27 26 22 21 24 24 26 21 20 27 21 16 18 1 11 11 11 18 24 28 31 33 29 30 35 27 28 27 29 32 37 33 31 32 33 22 25
6 4 1 3 7 12 21 29 31 30 31 30 29 24 23 28 33 34 27 20 10 9 12 7 7 10 19 25 25 22 38 37 37 38 34 31 40 41 37 32 30 32 26 22 21
Wind_Direction
8 7 6 8 10 11 14 14 16 13 15 14 359 292 261 286 287 239 239 223 210 228 228 196 220 217 213 206 227 245 251 265 277 259 340 145 208 182 357 237 204 200 264 73 159
355 357 359 358 359 1 2 1 1 1 359 358 358 337 282 271 276 257 243 221 213 211 184 212 226 196 225 229 213 239 253 280 310 267 259 195 230 199 215 215 228 233 222 163 163
342 343 342 347 350 353 352 352 351 349 347 347 345 335 311 274 276 246 211 209 205 205 208 221 247 212 246 242 199 194 252 355 244 241 248 245 225 215 229 246 225 233 224 187 185
323 325 326 330 334 340 342 342 342 340 339 337 334 324 305 231 276 146 185 194 201 192 187 195 206 217 243 226 199 257 245 248 283 230 239 238 260 226 227 239 11 260 254 176 198
317 316 319 323 326 329 332 333 332 330 327 327 323 308 272 239 255 223 192 197 189 175 221 224 235 249 250 239 231 251 276 249 243 222 239 256 242 248 256 244 255 217 225 196 206
322 315 315 313 317 318 322 325 325 322 318 316 307 273 235 255 251 210 199 195 191 206 219 227 287 294 293 258 233 352 285 269 254 245 234 232 256 225 255 248 242 231 226 224 214
319 320 313 311 311 311 315 318 320 317 314 310 285 211 239 252 220 208 198 196 200 213 223 218 229 237 11 257 255 278 284 276 246 238 241 209 254 237 252 227 235 235 229 228 224
317 314 314 309 309 308 312 316 316 314 310 304 244 194 255 229 192 200 181 161 172 179 188 165 187 225 241 35 239 259 253 271 128 183 186 197 264 252 242 203 233 243 235 232 228
310 313 315 311 313 310 311 316 315 310 305 260 176 231 258 167 195 193 186 190 154 128 115 141 203 251 189 237 265 210 266 267 255 192 162 208 268 281 170 235 258 256 250 236 232
309 312 317 315 313 309 309 318 308 290 310 170 252 233 192 209 148 165 179 173 170 154 164 202 219 240 223 230 249 274 276 272 270 196 216 231 251 272 271 269 267 264 264 259 244
329 319 318 321 326 318 322 336 252 210 206 232 261 266 202 104 150 179 165 165 171 213 216 199 220 232 239 231 250 276 281 277 274 268 214 243 256 265 273 275 273 271 269 258 255
320 325 322 324 325 318 313 279 55 339 290 245 254 262 233 187 242 195 167 187 192 220 216 206 233 248 271 288 267 261 264 269 275 289 206 266 267 268 269 266 270 273 270 270 267
299 321 323 325 323 312 277 242 226 171 249 224 221 240 235 188 231 214 183 202 213 230 223 237 251 110 263 248 250 249 252 260 265 270 221 269 273 255 248 253 260 265 262 268 257
285 303 321 334 359 332 289 269 197 189 265 225 197 179 160 198 251 141 207 213 206 244 237 253 260 263 254 252 255 260 269 256 265 273 267 136 286 274 288 262 231 265 274 261 232
274 280 305 327 308 337 329 322 299 266 274 113 158 120 151 212 64 177 169 199 231 206 190 231 229 223 237 247 254 253 310 253 257 257 278 262 271 267 205 261 240 244 257 270 215
264 258 273 293 246 222 258 321 300 246 249 193 156 174 174 202 197 117 195 230 314 241 236 257 65 229 237 109 238 108 253 248 231 260 253 252 241 287 208 206 233 251 259 232 187
256 245 231 233 271 253 182 147 260 235 47 201 214 188 203 198 201 192 177 192 193 186 222 225 227 200 181 198 171 202 211 263 246 227 265 268 259 261 280 226 238 258 263 153 177
256 241 227 218 220 207 150 196 239 238 229 90 331 212 212 183 225 205 203 224 227 234 275 231 241 197 195 218 219 198 210 223 269 271 284 47 265 261 234 239 242 248 250 181 193
272 239 219 213 205 192 189 213 240 232 250 260 226 244 224 225 247 199 216 227 218 204 213 211 245 136 178 170 194 165 207 273 273 146 278 267 263 253 169 196 220 215 204 225 217
243 219 224 203 203 158 230 231 246 224 268 280 236 220 244 231 199 198 217 229 237 207 227 245 262 160 135 168 214 233 96 196 200 271 265 279 281 271 254 231 218 234 237 253 221
248 243 210 188 171 156 202 229 264 259 268 265 255 261 252 247 245 232 241 256 219 215 210 238 233 224 136 201 199 185 222 217 290 233 255 275 269 80 101 103 141 215 225 244 227
216 250 171 169 190 184 210 216 227 263 281 299 276 275 265 261 259 252 243 248 208 184 196 216 253 234 233 228 272 258 230 217 222 232 228 249 271 122 234 135 157 180 206 246 240
235 211 185 178 206 208 230 230 237 252 243 212 239 243 283 287 298 279 262 262 272 192 217 166 215 241 261 242 177 212 227 241 234 253 246 241 255 188 263 256 226 230 237 223 225
273 237 189 258 242 239 217 224 227 233 241 231 214 268 268 261 255 266 266 274 257 265 23 149 214 236 239 248 268 212 224 221 225 231 244 241 257 274 269 276 279 280 273 264 243
241 235 186 202 236 237 235 227 237 233 217 200 212 212 209 234 245 245 247 256 266 99 357 259 248 241 247 260 269 272 269 250 232 239 241 257 253 260 276 270 275 286 283 281 279
288 302 294 284 226 213 220 224 231 239 230 230 224 222 213 223 216 258 238 234 238 171 255 237 246 245 249 252 261 264 262 259 257 248 245 249 265 263 261 273 274 273 274 284 281
320 328 65 279 277 253 224 224 231 232 240 235 239 235 229 218 223 236 245 255 217 204 198 204 211 221 240 235 245 255 244 247 254 254 248 249 246 257 268 259 259 268 280 279 280